[[{"header":{"parameterUnit":"m.s-1","parameterCategory":1,"la1":30.2991,"la2":30.254,"lo1":-89.0895,"lo2":-89.0444,"dy":0.0017,"dx":0.0017,"nx":28,"ny":28,"refTime":"2024-04-29T09:00:00:Z","depth":0,"parameterNumber":2,"parameterNumberName":"U-component_of_WINDS"},"data":[0,0,0,0,0,0,0,0,0,0,0,0,0,0,0,0,0,0,0,0,0,0,0,0,0,0,0,0,0,0,0,0,0,0,0,0,0,0,0,0,0,0,0,0,0,0,0,0,0,0,0,0,0,0,0,0,0,0,3.6329,3.6332,0,3.6571,3.6573,3.6576,3.6642,3.664,3.6639,3.6637,3.6879,3.6887,3.6895,0,0,0,0,0,0,0,0,0,0,0,0,0,3.592,3.5927,3.6329,3.6332,3.6335,3.657,3.6573,3.6577,3.6642,3.664,3.6638,3.6637,3.6877,3.6886,3.6895,0,0,0,0,0,0,0,0,0,0,0,0,0,3.6123,3.5929,3.6329,3.6396,3.6405,3.6569,3.6574,3.6578,3.6642,3.664,3.6638,3.6636,3.6874,3.6885,3.6897,3.701,0,0,3.6932,3.6937,0,0,0,0,0,0,0,0,3.6111,3.6138,3.6383,3.6392,3.6402,3.6574,3.6518,3.6722,3.6643,3.6552,3.6637,3.6635,3.6779,3.6798,3.6848,3.7021,3.7032,3.6933,3.694,3.6945,3.6948,0,0,0,0,0,0,0,3.6097,3.6128,3.6425,3.6387,3.6398,3.6413,3.6439,3.6557,3.6674,3.656,3.6565,3.6593,3.6784,3.6837,3.6854,3.7035,3.6933,3.6943,3.695,3.6955,3.7312,3.7314,0,0,0,0,0,0,3.6072,3.6116,3.6417,3.6432,3.6248,3.6422,3.6451,3.6521,3.6673,3.6694,3.6594,3.6595,3.6818,3.6841,3.6863,3.7005,3.6945,3.6956,3.6963,3.7309,3.7312,3.7315,0,0,0,0,0,0,3.6063,3.6098,3.6407,3.6275,3.6316,3.6431,3.6508,3.6526,3.658,3.6699,3.672,3.6627,3.6817,3.6847,3.6973,3.7014,3.6961,3.6972,3.7306,3.731,3.7313,3.729,0,0,0,0,0,0,3.6051,3.6095,3.614,3.6276,3.6323,3.6515,3.6511,3.6533,3.66,3.6603,3.6736,3.6756,3.6818,3.6955,3.6984,3.7029,3.6981,3.7303,3.7308,3.7312,3.7287,3.7292,3.7296,0,0,0,0,0,3.6036,3.6123,3.6142,3.6178,3.6382,3.6517,3.6544,3.6615,3.6603,3.6649,3.6726,3.6752,3.7005,3.6968,3.7001,3.705,3.7301,3.7306,3.7312,3.7285,3.7291,3.7296,0,0,0,0,0,0,3.5989,3.6142,3.6165,3.6299,3.6395,3.6528,3.6588,3.6619,3.6719,3.6717,3.6799,3.6829,3.6949,3.7012,3.6968,3.7166,3.7153,3.7165,3.7121,3.7128,3.7132,3.7114,3.699,0,0,0,0,0,3.5994,3.6092,3.6221,3.6326,3.6373,3.6472,3.6534,3.658,3.6682,3.6722,3.6808,3.6904,3.7005,3.707,3.717,3.7297,3.7325,3.7346,3.7351,3.7354,3.7363,3.7433,3.7444,3.7333,3.7333,3.7333,0,0,3.6006,3.6102,3.6159,3.6319,3.6399,3.6497,3.6506,3.661,3.6682,3.6737,3.6862,3.6928,3.704,3.7167,3.7227,3.7223,3.74,3.7361,3.7363,3.7371,3.744,3.745,3.7459,3.7337,3.7336,3.7336,0,0,3.6077,3.616,3.6257,3.6336,3.6457,3.6522,3.6545,3.6674,3.672,3.6847,3.6889,3.6976,3.7149,3.7227,3.7289,3.7388,3.7415,3.7418,3.7441,3.7508,3.7517,3.7525,3.7559,3.757,3.7427,3.7427,3.7427,0,3.6076,3.6227,3.6302,3.6404,3.6472,3.6528,3.6625,3.6698,3.6844,3.6889,3.6883,3.7101,3.718,3.7325,3.7349,3.7398,3.7425,3.7403,3.751,3.7519,3.7528,3.756,3.7573,3.7427,3.7427,3.7427,3.7427,0,3.6219,3.6322,3.6386,3.6527,3.6602,3.6701,3.679,3.6857,3.6896,3.6961,3.7088,3.7185,3.7305,3.7343,3.7382,3.7493,3.7486,3.7494,3.7482,3.7536,3.7569,3.7582,3.7426,3.7426,3.7427,3.7427,0,0,3.6267,3.6448,3.647,3.6534,3.667,3.6751,3.6851,3.697,3.7025,3.7123,3.7208,3.7352,3.736,3.7431,3.7479,3.7538,3.7607,3.7539,3.7542,3.7547,3.7733,3.7725,3.7739,3.7626,3.7629,3.7631,3.7723,0,3.6355,3.6538,3.6608,3.6756,3.6852,3.6905,3.6992,3.7084,3.7147,3.7235,3.7304,3.7405,3.7409,3.7451,3.7512,3.7586,3.7646,3.7581,3.7703,3.7707,3.7673,3.7756,3.7749,3.7832,3.7736,3.7739,3.774,0,3.6482,3.6582,3.674,3.6864,3.6906,3.6984,3.7097,3.7182,3.7286,3.7327,3.7405,3.745,3.7554,3.7535,3.7679,3.7633,3.7687,3.7731,3.7736,3.7749,3.7726,3.7771,3.786,3.7871,3.7761,3.7759,3.7758,0,3.6499,3.6674,3.6791,3.6845,3.6992,3.7044,3.7108,3.721,3.7276,3.7374,3.7418,3.7526,3.7585,3.7667,3.7738,3.7718,3.7874,3.7862,3.791,3.7908,3.794,3.7937,3.8037,3.7976,3.7976,3.7976,3.7975,0,3.6589,3.6683,3.6801,3.6873,3.6979,3.7058,3.7161,3.7227,3.7318,3.7402,3.7454,3.7531,3.7621,3.7709,3.7765,3.7874,3.7901,3.7935,3.7949,3.793,3.7926,3.7966,3.7962,3.7979,3.7978,3.7978,3.7977,0,3.6627,3.671,3.6841,3.6969,3.7003,3.7076,3.7185,3.7256,3.7321,3.7426,3.7455,3.7556,3.7663,3.7742,3.7879,3.7917,3.8033,3.8047,3.7998,3.8005,3.8047,3.8042,3.8177,3.8198,3.8123,3.8124,3.8124,0,3.6678,3.6752,3.6889,3.6949,3.7013,3.711,3.7178,3.7257,3.7325,3.7449,3.7504,3.7614,3.7707,3.7873,3.7958,3.8062,3.8079,3.8119,3.8095,3.8073,3.8078,3.8072,3.8079,3.8122,3.8122,3.8123,3.8123,0,3.676,3.6797,3.6894,3.7005,3.7085,3.7176,3.7267,3.7313,3.7409,3.7482,3.7592,3.7664,3.7804,3.7912,3.8025,3.8088,3.8121,3.813,3.8146,3.8128,3.8096,3.8112,3.8006,3.8126,3.8126,3.8126,3.8126,3.8126,3.6806,3.6873,3.698,3.7085,3.7163,3.7246,3.7319,3.7393,3.7487,3.7608,3.7649,3.7762,3.7862,3.8018,3.8081,3.8169,3.8169,3.8193,3.8199,3.8203,3.8201,3.8082,3.819,3.819,3.819,3.819,3.819,0,3.6889,3.696,3.7057,3.7183,3.7266,3.7291,3.7393,3.746,3.7559,3.7651,3.7741,3.7866,3.7971,3.8063,3.8171,3.8223,3.8241,3.8249,3.8245,3.8259,3.8196,3.817,3.8233,3.8233,3.8233,3.8233,3.8233,3.8233,3.6942,3.7058,3.7107,3.726,3.733,3.7443,3.7499,3.7575,3.7649,3.7787,3.7875,3.7935,3.8026,3.8141,3.8237,3.8261,3.8298,3.8302,3.8329,3.8269,3.8263,3.8258,3.8235,3.8309,3.8309,3.8385,3.8385,3.8386]},{"header":{"parameterUnit":"m.s-1","parameterCategory":1,"la1":30.2991,"la2":30.254,"lo1":-89.0895,"lo2":-89.0444,"dy":0.0017,"dx":0.0017,"nx":28,"ny":28,"refTime":"2024-04-29T09:00:00:Z","depth":0,"parameterNumber":3,"parameterNumberName":"V-component_of_WINDS"},"data":[0,0,0,0,0,0,0,0,0,0,0,0,0,0,0,0,0,0,0,0,0,0,0,0,0,0,0,0,0,0,0,0,0,0,0,0,0,0,0,0,0,0,0,0,0,0,0,0,0,0,0,0,0,0,0,0,0,0,0.8463,0.8466,0,0.8715,0.8718,0.8721,0.8799,0.8798,0.8796,0.8795,0.9069,0.9078,0.9086,0,0,0,0,0,0,0,0,0,0,0,0,0,0.8065,0.8072,0.8463,0.8466,0.8469,0.8714,0.8718,0.8721,0.8799,0.8798,0.8796,0.8795,0.9067,0.9077,0.9087,0,0,0,0,0,0,0,0,0,0,0,0,0,0.827,0.8074,0.8462,0.8537,0.8546,0.8714,0.8718,0.8722,0.88,0.8798,0.8796,0.8794,0.9063,0.9076,0.9088,0.9204,0,0,0.9127,0.9132,0,0,0,0,0,0,0,0,0.8258,0.8284,0.8523,0.8532,0.8543,0.8723,0.8678,0.8884,0.88,0.8704,0.8795,0.8793,0.8957,0.8978,0.903,0.9217,0.9229,0.9128,0.9136,0.9141,0.9145,0,0,0,0,0,0,0,0.8244,0.8274,0.8563,0.8527,0.8539,0.8563,0.859,0.8718,0.8839,0.8712,0.8718,0.8746,0.8962,0.9018,0.9037,0.9233,0.9128,0.9139,0.9147,0.9152,0.953,0.9532,0,0,0,0,0,0,0.8215,0.8262,0.8555,0.8571,0.8392,0.8572,0.8602,0.8668,0.8837,0.8861,0.8748,0.8749,0.8997,0.9022,0.9047,0.9195,0.9141,0.9153,0.916,0.9528,0.9531,0.9533,0,0,0,0,0,0,0.8206,0.824,0.8545,0.8418,0.8458,0.8581,0.8654,0.8674,0.8729,0.8864,0.8887,0.8781,0.8996,0.9029,0.9164,0.9206,0.9159,0.917,0.9525,0.9528,0.9532,0.9492,0,0,0,0,0,0,0.8194,0.8236,0.8278,0.8418,0.8465,0.8653,0.8656,0.868,0.8749,0.8753,0.8901,0.8924,0.8997,0.9144,0.9176,0.9223,0.918,0.9522,0.9526,0.9531,0.949,0.9493,0.9496,0,0,0,0,0,0.8179,0.826,0.828,0.8315,0.8519,0.8655,0.8682,0.876,0.8751,0.8797,0.8884,0.892,0.9195,0.9157,0.9194,0.9245,0.9519,0.9525,0.953,0.9488,0.9493,0.9496,0,0,0,0,0,0,0.8128,0.828,0.8303,0.843,0.8528,0.8667,0.8727,0.8762,0.8869,0.8869,0.8966,0.8999,0.9127,0.92,0.9154,0.9367,0.9359,0.9372,0.9315,0.932,0.9323,0.9305,0.9191,0,0,0,0,0,0.813,0.8222,0.8353,0.8453,0.85,0.8604,0.8667,0.8718,0.8826,0.8869,0.8966,0.9073,0.9185,0.9256,0.9366,0.95,0.9536,0.9553,0.9556,0.9558,0.957,0.9649,0.9659,0.9551,0.9551,0.9551,0,0,0.8138,0.8232,0.8286,0.8444,0.8526,0.8625,0.8639,0.8743,0.8819,0.8887,0.9019,0.9093,0.922,0.9355,0.942,0.942,0.9607,0.9565,0.9566,0.9577,0.9655,0.9665,0.9674,0.9555,0.9554,0.9554,0,0,0.8203,0.8282,0.8374,0.8454,0.8576,0.8645,0.8667,0.8801,0.8852,0.8984,0.9037,0.9131,0.932,0.9408,0.9478,0.9575,0.9613,0.9608,0.9627,0.9703,0.9712,0.972,0.9757,0.9769,0.9618,0.9618,0.9618,0,0.8199,0.8344,0.8419,0.8519,0.8589,0.8648,0.8745,0.8822,0.8975,0.9025,0.9021,0.9258,0.9348,0.9505,0.9528,0.9582,0.9614,0.9593,0.9703,0.9712,0.9721,0.9758,0.9771,0.9617,0.9617,0.9617,0.9618,0,0.8335,0.8435,0.8496,0.8636,0.8713,0.8811,0.8905,0.8974,0.9018,0.9089,0.9225,0.9334,0.9467,0.9508,0.9554,0.9673,0.9669,0.9683,0.9678,0.9728,0.9765,0.9779,0.9615,0.9616,0.9616,0.9616,0,0,0.8376,0.8554,0.8575,0.864,0.8779,0.8861,0.8963,0.9088,0.9147,0.9251,0.9343,0.95,0.9513,0.9592,0.9649,0.9714,0.9787,0.9721,0.9726,0.9732,0.9928,0.9919,0.9933,0.9812,0.9815,0.9817,0.9918,0,0.8461,0.864,0.8709,0.8858,0.8954,0.9012,0.9102,0.9199,0.9268,0.9363,0.9442,0.9552,0.956,0.9608,0.9675,0.9763,0.9828,0.9757,0.9903,0.9908,0.9872,0.9952,0.9943,1.0033,0.9933,0.9935,0.9937,0,0.8583,0.8682,0.8839,0.8965,0.9008,0.9087,0.9207,0.9296,0.9409,0.9455,0.9541,0.9594,0.9709,0.9693,0.9855,0.9805,0.9869,0.9922,0.9927,0.9947,0.9927,0.9976,1.0063,1.0078,0.996,0.9958,0.9956,0,0.86,0.8774,0.889,0.8944,0.9093,0.9148,0.9214,0.9324,0.9395,0.9502,0.955,0.967,0.9738,0.9832,0.9918,0.9898,1.0073,1.0064,1.0119,1.0117,1.0156,1.0153,1.0257,1.0192,1.0192,1.0191,1.0191,0,0.8689,0.8783,0.8899,0.8971,0.908,0.9161,0.9268,0.9339,0.9436,0.9527,0.9586,0.9671,0.9776,0.9876,0.9944,1.007,1.01,1.0144,1.0161,1.014,1.0135,1.0186,1.0183,1.0195,1.0194,1.0194,1.0193,0,0.8727,0.8808,0.8939,0.9069,0.9104,0.9178,0.9292,0.9367,0.9437,0.9551,0.9583,0.9695,0.9816,0.9909,1.0068,1.0113,1.0247,1.0265,1.0207,1.0217,1.0267,1.0262,1.041,1.0436,1.035,1.0351,1.0351,0,0.8779,0.8852,0.8988,0.905,0.9114,0.9214,0.9285,0.9368,0.9441,0.9574,0.9634,0.9757,0.9861,1.0052,1.0151,1.0274,1.0297,1.034,1.0316,1.0292,1.0301,1.0296,1.0306,1.0344,1.0345,1.0345,1.0345,0,0.8864,0.89,0.8997,0.9109,0.919,0.9284,0.9379,0.9428,0.9529,0.9609,0.9729,0.9809,0.9968,1.0092,1.0224,1.0298,1.0341,1.0351,1.0371,1.0352,1.0316,1.0339,1.0219,1.0349,1.0348,1.0348,1.0348,1.0348,0.8914,0.8981,0.9087,0.9194,0.9273,0.936,0.9436,0.9514,0.9614,0.9747,0.9791,0.9917,1.0031,1.0211,1.0286,1.039,1.0392,1.042,1.0427,1.0434,1.0433,1.0296,1.0414,1.0414,1.0414,1.0414,1.0414,0,0.9003,0.9073,0.917,0.9299,0.9384,0.9409,0.9516,0.9587,0.9695,0.9794,0.9893,1.0034,1.0154,1.0261,1.0387,1.0449,1.0472,1.048,1.0478,1.0496,1.0422,1.0394,1.046,1.046,1.046,1.0459,1.0459,1.0459,0.906,0.9177,0.9225,0.9383,0.9455,0.9573,0.9633,0.9715,0.9795,0.9947,1.0045,1.0111,1.0216,1.035,1.0463,1.0492,1.0538,1.0541,1.0576,1.0506,1.05,1.0495,1.0469,1.0549,1.0549,1.0641,1.0642,1.0642]}]]